Weather History for Wakefield, VA

Change the Weather History Date:

Thursday, January 17, 2013

  Actual Average (KJGG) Record (KJGG)
Temperature  
Mean Temperature 40 °F -  
Max Temperature 46 °F 48 °F 70 °F (1990)
Min Temperature 33 °F 24 °F 0 °F (1977)
Degree Days  
Heating Degree Days 26    
Moisture  
Dew Point 41 °F    
Average Humidity 93    
Maximum Humidity 100    
Minimum Humidity 87    
Precipitation  
Precipitation 1.47 in - - ()
Sea Level Pressure  
Sea Level Pressure 30.05 in    
Wind  
Wind Speed 2 mph (NNE)    
Max Wind Speed 13 mph    
Max Gust Speed 23 mph    
Visibility 2 miles    
Events Rain , Snow    
Averages and records for this station are not official NWS values.
T = Trace of Precipitation, MM = Missing Value Source: NWS Daily Summary

Daily Weather History Graph

Daily Weather History Graph

Search for Another Location

Airport:

Trip Planner

Search our weather history database for the weather conditions in past years. The results will help you decide how hot, cold, wet, or windy it might be!

Date:

Astronomy

Jan. 17, 2013 Rise Set
Actual Time 7:19 AM EST 5:17 PM EST
Civil Twilight 6:51 AM EST 5:45 PM EST
Nautical Twilight 6:19 AM EST 6:17 PM EST
Astronomical Twilight 5:48 AM EST 6:48 PM EST
Moon 10:35 AM EST (1/17) 11:55 PM EST (1/17)
Length of Visible Light 10h 54m
Length of Day
9h 57m
Waxing Crescent, 37% of the Moon is Illuminated
Jan 17
Waxing Crescent
Jan 18
First Quarter
Jan 26
Full
Feb 3
Last Quarter
Feb 10
New

Hourly Weather History & Observations

Time (EST) Temp. Windchill Dew Point Humidity Pressure Visibility Wind Dir Wind Speed Gust Speed Precip Events Conditions
12:54 AM 46.0 °F - 45.0 °F 96% 30.00 in 1.2 mi Calm Calm - N/A   Overcast
1:46 AM 46.4 °F - 44.6 °F 93% 30.03 in 1.5 mi Calm Calm - 0.02 in Rain Light Rain
1:54 AM 46.9 °F - 45.0 °F 93% 30.04 in 1.8 mi Calm Calm - 0.03 in Rain Light Rain
2:14 AM 46.4 °F - 44.6 °F 93% 30.01 in 1.8 mi Calm Calm - 0.02 in Rain Light Rain
2:21 AM 46.4 °F - 44.6 °F 93% 30.01 in 2.0 mi Calm Calm - 0.03 in Rain Light Rain
2:50 AM 46.4 °F - 44.6 °F 93% 30.01 in 1.8 mi Calm Calm - 0.05 in Rain Light Rain
2:54 AM 46.9 °F - 45.0 °F 93% 30.02 in 1.8 mi Calm Calm - 0.06 in Rain Light Rain
3:09 AM 46.4 °F - 44.6 °F 93% 30.02 in 2.0 mi Calm Calm - 0.02 in Rain Light Rain
3:16 AM 46.4 °F - 44.6 °F 93% 30.01 in 1.8 mi Calm Calm - 0.03 in Rain Light Rain
3:25 AM 46.4 °F - 44.6 °F 93% 30.01 in 2.0 mi Calm Calm - 0.03 in Rain Light Rain
3:36 AM 46.4 °F - 44.6 °F 93% 30.01 in 3.0 mi Calm Calm - 0.04 in Rain Light Rain
3:54 AM 46.9 °F - 45.0 °F 93% 30.03 in 3.0 mi Calm Calm - 0.04 in Rain Light Rain
3:59 AM 46.4 °F - 44.6 °F 93% 30.02 in 2.5 mi Calm Calm - 0.01 in Rain Light Rain
4:03 AM 46.4 °F - 44.6 °F 93% 30.01 in 1.8 mi Calm Calm - 0.01 in Rain Rain
4:16 AM 46.4 °F - 46.4 °F 100% 30.00 in 1.5 mi Calm Calm - 0.03 in Rain Light Rain
4:38 AM 46.4 °F - 44.6 °F 93% 29.99 in 2.0 mi Calm Calm - 0.05 in Rain Light Rain
4:44 AM 46.4 °F - 44.6 °F 93% 30.00 in 1.8 mi Calm Calm - 0.06 in Rain Light Rain
4:54 AM 46.9 °F - 46.0 °F 97% 30.01 in 2.0 mi Calm Calm - 0.07 in Rain Light Rain
4:59 AM 46.4 °F - 46.4 °F 100% 30.00 in 1.8 mi Calm Calm - 0.02 in Rain Rain
5:10 AM 46.4 °F - 46.4 °F 100% 30.00 in 2.0 mi Calm Calm - 0.04 in Rain Light Rain
5:20 AM 46.4 °F - 44.6 °F 93% 30.01 in 2.0 mi Calm Calm - 0.06 in Rain Rain
5:44 AM 46.4 °F - 44.6 °F 93% 30.01 in 2.5 mi Calm Calm - 0.12 in Rain Light Rain
5:54 AM 46.9 °F - 45.0 °F 93% 30.02 in 2.5 mi Calm Calm - 0.13 in Rain Light Rain
6:17 AM 46.4 °F - 44.6 °F 93% 30.02 in 3.0 mi Calm Calm - 0.02 in Rain Light Rain
6:26 AM 46.4 °F - 44.6 °F 93% 30.02 in 2.5 mi Calm Calm - 0.02 in Rain Light Rain
6:35 AM 46.4 °F - 44.6 °F 93% 30.03 in 2.0 mi Calm Calm - 0.03 in Rain Light Rain
6:54 AM 46.9 °F - 45.0 °F 93% 30.03 in 2.0 mi Calm Calm - 0.05 in Rain Light Rain
7:07 AM 46.4 °F - 44.6 °F 93% 30.03 in 2.5 mi Calm Calm - 0.02 in Rain Light Rain
7:14 AM 46.4 °F - 44.6 °F 93% 30.03 in 3.0 mi Calm Calm - 0.03 in Rain Light Rain
7:21 AM 46.4 °F - 44.6 °F 93% 30.03 in 3.0 mi Calm Calm - 0.03 in Rain Light Rain
7:31 AM 46.4 °F - 44.6 °F 93% 30.03 in 4.0 mi Calm Calm - 0.04 in Rain Light Rain
7:54 AM 46.9 °F - 45.0 °F 93% 30.06 in 3.0 mi Calm Calm - 0.04 in Rain Light Rain
7:59 AM 46.4 °F - 44.6 °F 93% 30.06 in 1.8 mi Calm Calm - 0.01 in Rain Light Rain
8:28 AM 46.4 °F - 44.6 °F 93% 30.07 in 1.2 mi Calm Calm - 0.05 in Rain Rain
8:52 AM 46.4 °F 45.2 °F 44.6 °F 93% 30.07 in 2.5 mi Variable 3.5 mph - 0.06 in Rain Light Rain
8:54 AM 46.9 °F - 45.0 °F 93% 30.08 in 2.5 mi Calm Calm - 0.07 in Rain Light Rain
9:06 AM 46.4 °F 45.2 °F 44.6 °F 93% 30.08 in 3.0 mi Variable 3.5 mph - 0.00 in Rain Light Rain
9:16 AM 46.4 °F - 44.6 °F 93% 30.09 in 1.8 mi Calm Calm - 0.02 in Rain Rain
9:41 AM 46.4 °F - 44.6 °F 93% 30.11 in 0.8 mi Calm Calm - 0.09 in Rain Rain
9:50 AM 46.4 °F - 44.6 °F 93% 30.10 in 1.0 mi Calm Calm - 0.12 in Rain Rain
9:54 AM 46.9 °F - 45.0 °F 93% 30.12 in 1.0 mi Calm Calm - 0.13 in Rain Rain
10:17 AM 46.4 °F 45.2 °F 44.6 °F 93% 30.09 in 2.0 mi ENE 3.5 mph - 0.03 in Rain Light Rain
10:34 AM 46.4 °F - 44.6 °F 93% 30.10 in 1.8 mi Calm Calm - 0.04 in Rain Light Rain
10:44 AM 46.4 °F 45.2 °F 44.6 °F 93% 30.08 in 1.5 mi Variable 3.5 mph - 0.05 in Rain Light Rain
10:54 AM 46.0 °F - 44.1 °F 93% 30.09 in 1.5 mi Calm Calm - 0.06 in Rain Light Rain
11:07 AM 46.4 °F - 44.6 °F 93% 30.08 in 1.5 mi Calm Calm - 0.02 in Rain Light Rain
11:12 AM 46.4 °F - 44.6 °F 93% 30.08 in 1.5 mi Calm Calm - 0.03 in Rain Rain
11:24 AM 46.4 °F 44.3 °F 44.6 °F 93% 30.08 in 1.5 mi Variable 4.6 mph - 0.05 in Rain Light Rain
11:40 AM 46.4 °F 44.3 °F 42.8 °F 87% 30.08 in 1.5 mi Variable 4.6 mph - 0.06 in Rain Light Rain
11:54 AM 46.0 °F 43.9 °F 43.0 °F 89% 30.07 in 1.5 mi Variable 4.6 mph - 0.07 in Rain Light Rain
11:59 AM 46.4 °F 45.2 °F 42.8 °F 87% 30.07 in 1.5 mi Variable 3.5 mph - 0.01 in Rain Light Rain
12:15 PM 46.4 °F 44.3 °F 42.8 °F 87% 30.05 in 2.0 mi Variable 4.6 mph - 0.01 in Rain Light Rain
12:24 PM 44.6 °F 43.1 °F 42.8 °F 93% 30.05 in 1.8 mi Variable 3.5 mph - 0.02 in Rain Light Rain
12:34 PM 44.6 °F 43.1 °F 42.8 °F 93% 30.06 in 1.8 mi Variable 3.5 mph - 0.02 in Rain Light Rain
12:44 PM 44.6 °F 40.7 °F 42.8 °F 93% 30.05 in 2.5 mi Variable 6.9 mph - 0.03 in   Overcast
12:54 PM 45.0 °F - 42.1 °F 90% 30.04 in 2.0 mi Calm Calm - 0.03 in Rain Light Rain
1:18 PM 44.6 °F - 42.8 °F 93% 30.03 in 3.0 mi Calm Calm - 0.00 in   Overcast
1:37 PM 44.6 °F 43.1 °F 42.8 °F 93% 30.03 in 2.0 mi ENE 3.5 mph - 0.00 in   Overcast
1:54 PM 44.1 °F 42.5 °F 42.1 °F 93% 30.04 in 2.0 mi Variable 3.5 mph - 0.00 in   Overcast
2:12 PM 44.6 °F 41.4 °F 41.0 °F 87% 30.04 in 1.2 mi Variable 5.8 mph - 0.01 in Rain Light Rain
2:51 PM 42.8 °F 37.5 °F 39.2 °F 87% 30.03 in 2.5 mi NE 9.2 mph 16.1 mph 0.03 in   Overcast
2:54 PM 42.1 °F 37.1 °F 39.0 °F 89% 30.04 in 2.5 mi NE 8.1 mph 16.1 mph 0.03 in   Overcast
3:02 PM 42.8 °F 36.2 °F 39.2 °F 87% 30.04 in 3.0 mi NE 12.7 mph 23.0 mph N/A   Overcast
3:06 PM 41.0 °F 35.2 °F 37.4 °F 87% 30.05 in 2.5 mi NNE 9.2 mph 23.0 mph N/A   Overcast
3:15 PM 39.2 °F 33.0 °F 37.4 °F 93% 30.05 in 3.0 mi NE 9.2 mph 17.3 mph N/A   Overcast
3:32 PM 39.2 °F 34.2 °F 37.4 °F 93% 30.05 in 1.8 mi NNE 6.9 mph - 0.00 in Rain Light Rain
3:54 PM 39.9 °F 35.1 °F 37.9 °F 93% 30.05 in 1.2 mi NE 6.9 mph - 0.01 in Rain Light Rain
4:29 PM 39.2 °F 33.6 °F 37.4 °F 93% 30.05 in 2.5 mi NNE 8.1 mph - 0.01 in   Overcast
4:54 PM 39.9 °F 36.7 °F 37.0 °F 89% 30.07 in 2.0 mi NNE 4.6 mph - 0.01 in Rain Light Rain
5:16 PM 39.2 °F 33.6 °F 37.4 °F 93% 30.06 in 4.0 mi NNE 8.1 mph 17.3 mph 0.01 in Rain Light Rain
5:54 PM 39.0 °F 34.0 °F 37.0 °F 93% 30.05 in 4.0 mi NNE 6.9 mph - 0.01 in   Overcast
6:11 PM 39.2 °F 32.5 °F 37.4 °F 93% 30.04 in 1.8 mi NE 10.4 mph 16.1 mph 0.01 in Rain Light Rain
6:54 PM 37.9 °F 31.5 °F 36.0 °F 93% 30.08 in 1.2 mi NNE 9.2 mph 19.6 mph 0.08 in Rain Rain
7:18 PM 37.4 °F 31.4 °F 35.6 °F 93% 30.06 in 3.0 mi NNE 8.1 mph 21.9 mph 0.05 in Rain Light Rain
7:46 PM 37.4 °F 31.4 °F 33.8 °F 87% 30.05 in 2.0 mi NNE 8.1 mph 19.6 mph 0.08 in Rain Light Rain
7:54 PM 36.0 °F 28.0 °F 34.0 °F 93% 30.04 in 1.8 mi NNE 11.5 mph 20.7 mph 0.10 in Rain Rain
8:11 PM 35.6 °F 30.7 °F 33.8 °F 93% 30.03 in 2.0 mi NNE 5.8 mph - 0.03 in Rain Light Rain
8:24 PM 35.6 °F 28.0 °F 33.8 °F 93% 30.00 in 3.0 mi NNE 10.4 mph 17.3 mph 0.04 in Rain Light Rain
8:45 PM 35.6 °F 32.8 °F 33.8 °F 93% 30.08 in 2.5 mi North 3.5 mph - 0.08 in Snow Light Snow
8:54 PM 34.0 °F 29.8 °F 32.0 °F 92% 30.10 in 1.5 mi Variable 4.6 mph - 0.09 in Snow Light Snow
9:12 PM 33.8 °F 29.6 °F 32.0 °F 93% 30.06 in 0.8 mi North 4.6 mph - 0.05 in Snow Light Snow
9:26 PM 33.8 °F 30.8 °F 32.0 °F 93% 30.07 in 1.2 mi NNE 3.5 mph - 0.08 in Snow Light Snow
9:31 PM 33.8 °F 29.6 °F 32.0 °F 93% 30.05 in 2.0 mi NNE 4.6 mph - 0.09 in Snow Light Snow
9:54 PM 33.1 °F 28.7 °F 32.0 °F 96% 30.06 in 1.8 mi North 4.6 mph - 0.13 in Snow Light Snow
10:15 PM 33.8 °F 27.7 °F 30.2 °F 87% 30.00 in 0.8 mi NNE 6.9 mph - 0.05 in Snow Light Snow
10:22 PM 33.8 °F 27.7 °F 30.2 °F 87% 29.99 in 1.2 mi NNE 6.9 mph - 0.06 in Snow Light Snow
10:41 PM 33.8 °F 28.6 °F 32.0 °F 93% 30.04 in 2.0 mi North 5.8 mph - 0.09 in Snow Light Snow
10:51 PM 33.8 °F 28.6 °F 32.0 °F 93% 30.07 in 1.5 mi North 5.8 mph - 0.11 in Snow Light Snow
10:54 PM 33.1 °F 26.9 °F 32.0 °F 96% 30.07 in 1.2 mi North 6.9 mph - 0.12 in Snow Light Snow
11:05 PM 33.8 °F 27.0 °F 30.2 °F 87% 30.05 in 0.8 mi North 8.1 mph - 0.02 in Snow Light Snow
11:45 PM 33.8 °F 30.8 °F 32.0 °F 93% 30.08 in 1.0 mi Variable 3.5 mph - 0.10 in Snow Light Snow
11:54 PM 33.1 °F - 32.0 °F 96% 30.08 in 1.0 mi Calm Calm - 0.11 in Snow Light Snow